#timestamp,LO_Frequency,Hit,StdDev 
1528448415.0,286046998.5,N
1528448415.9,286046998.5,N
1528448435.8,286046999.9,N
1528448455.8,286047002.4,N
1528448475.7,286047002.1,N
1528448495.5,286047002.5,N
1528448515.3,286047002.8,N
1528448535.2,286047000.2,N
1528448555.0,286047001.0,N
1528448555.9,286047001.0,N
1528448575.8,286047000.7,N
1528448595.6,286046998.5,N
1528448615.4,286046999.9,N
1528448635.3,286047001.1,N
1528448655.1,286046998.5,N
1528448675.9,286047001.0,N
1528448695.7,286047002.5,N
1528448715.5,286046999.8,N
1528448735.4,286047002.0,N
1528448755.2,286047000.9,N
1528448775.1,286046998.1,N
1528448776.0,286046998.1,N
1528448795.8,286047001.1,N
1528448815.6,286047000.3,N
1528448835.5,286047000.5,N
1528448855.3,286046999.2,N
1528448875.8,286046998.7,N
1528448895.6,286047000.7,N
1528448915.4,286047000.6,N
1528448935.3,286046999.9,N
1528448955.1,286047000.9,N
1528448975.9,286047000.9,N
1528448995.7,286047001.7,N
1528449015.5,286047000.7,N
1528449035.4,286047000.1,N
1528449055.2,286047002.2,N
1528449075.0,286047001.9,N
1528449076.0,286047001.9,N
1528449095.8,286047000.2,N
1528449115.6,286047000.0,N
1528449135.5,286047000.9,N
1528449155.3,286047001.0,N
1528449175.1,286047000.6,N
1528449195.9,286047002.2,N
1528449215.7,286047001.6,N
1528449235.6,286047004.3,Y
1528449255.4,286047003.6,P
1528449275.2,286047001.3,N
1528449295.1,286047001.5,N
1528449296.0,286047001.5,N
1528449315.8,286047001.4,N
1528449335.7,286047003.5,Y
1528449355.5,286047000.1,P
1528449375.3,286047000.2,N
1528449395.2,286047004.4,P
1528449415.9,286047001.7,N
1528449435.7,286047002.0,N
1528449455.6,286047002.5,N
1528449475.4,286047002.0,N
1528449495.3,286047002.8,N
1528449515.1,286047002.4,N
1528449516.0,286047002.4,N
1528449535.8,286047000.1,N
1528449555.7,286046999.8,N
1528449575.5,286047002.8,N
1528449595.3,286047002.3,N
1528449615.2,286047000.2,N
1528449635.0,286047000.0,N
1528449635.9,286047000.0,N
1528449655.8,286047001.0,N
1528449675.6,286047001.1,N
1528449695.4,286046998.7,N
1528449715.3,286046998.6,N
1528449735.1,286046998.3,N
1528449755.8,286046998.9,N
1528449775.7,286046999.2,N
1528449795.5,286046999.6,N
1528449815.6,286046996.8,N
1528449835.5,286046996.6,N
1528449855.3,286046998.3,N
1528449875.1,286046996.5,N
1528449895.9,286046996.7,N
1528449915.7,286046997.1,N
1528449935.6,286046997.5,N
1528449955.4,286046994.9,N
1528449975.2,286046997.5,N
1528449995.1,286046997.0,N
1528449996.0,286046997.0,N
1528450015.8,286046997.4,N
1528450035.6,286046995.0,N
1528450055.5,286046995.5,N
1528450075.3,286046995.9,N
1528450095.2,286046995.7,N
1528450115.9,286046995.6,N
1528450165.8,286046993.8,E
1528450175.7,286046997.1,N
1528450195.5,286046999.8,P
1528450215.3,286047000.2,N
1528450235.2,286047000.1,N
1528450255.0,286047002.8,N
1528450255.9,286047002.8,N
1528450275.8,286046999.8,N
1528450295.6,286046999.8,N
1528450315.4,286047000.6,N
1528450335.3,286046998.1,N
1528450355.1,286047001.2,N
1528450375.8,286047001.0,N
1528450395.7,286047000.3,N
1528450415.5,286047000.3,N
1528450435.4,286047001.2,N
1528450455.2,286047000.7,N
1528450475.0,286047000.6,N
1528450475.9,286047000.6,N
1528450495.5,286047001.1,N
1528450515.3,286047000.4,N
1528450535.1,286047000.8,N
1528450555.9,286046999.8,N
1528450575.7,286047001.0,N
1528450595.6,286047001.2,N
1528450615.4,286046998.4,N
1528450635.2,286046996.5,N
1528450655.1,286046996.6,N
1528450656.0,286046996.6,N
1528450675.8,286046996.9,N
1528450695.6,286046997.0,N
1528450715.5,286046999.6,N
1528450735.3,286046998.2,N
1528450755.2,286046998.9,N
1528450775.9,286046998.9,N
1528450795.7,286046997.1,N
1528450815.6,286046997.8,N
1528450835.4,286046997.2,N
1528450855.2,286046995.0,Y
1528450875.1,286046996.8,P
1528450876.0,286046996.8,N
1528450895.8,286046999.6,N
1528450915.7,286046998.3,N
1528450935.5,286046998.5,N
1528450955.3,286047000.8,N
1528450975.2,286046998.5,N
1528450995.0,286046998.5,N
1528450995.9,286046998.5,N
1528451015.8,286046997.7,N
1528451035.6,286046996.5,Y
1528451055.4,286047001.1,P
1528451075.3,286046998.1,N
1528451095.1,286047000.8,N
1528451115.8,286047000.6,N
1528451135.7,286047001.0,N
1528451155.5,286046999.7,N
1528451175.4,286047000.3,N
1528451195.2,286046998.6,N
1528451215.0,286046999.4,N
1528451215.9,286046999.4,N
1528451235.8,286046996.5,Y
1528451255.6,286046999.0,P
1528451275.5,286046998.2,P
1528451295.3,286046998.1,P
1528451315.1,286046998.2,N
1528451335.2,286047000.1,N
1528451355.2,286047000.2,N
1528451375.0,286047000.0,N
1528451395.1,286047000.3,N
1528451415.3,286046999.4,N
1528451435.1,286046999.4,N
1528451455.9,286046999.6,N
1528451475.7,286046998.5,N
1528451495.5,286047000.7,N
1528451515.4,286046998.3,N
1528451535.2,286046997.8,N
1528451555.0,286046998.0,N
1528451555.9,286046998.0,N
1528451575.8,286046995.3,Y
1528451595.4,286046997.4,P
1528451615.3,286046997.8,N
1528451635.1,286046997.2,P
1528451655.9,286046995.9,Y
1528451675.7,286046999.6,P
1528451695.5,286046996.6,P
1528451715.4,286046999.5,N
1528451735.2,286046998.5,N
1528451755.0,286046996.5,Y
1528451755.9,286046996.5,P
1528451775.8,286046999.7,N
1528451795.6,286047004.4,P
1528451815.5,286047002.5,N
1528451835.3,286047002.3,N
1528451855.1,286047002.3,N
1528451875.9,286047001.9,N
1528451895.7,286047002.5,N
1528451915.6,286047001.7,N
1528451935.4,286047001.4,N
1528451955.2,286047004.2,N
1528451975.1,286047003.7,N
1528451976.0,286047003.7,N
1528451995.8,286047006.0,N
